This demonstration page uses our WeatherBlox Daily Observations layout. Learn more.

Left ArrowRight Arrow

39.01783, -85.05884

Hourly Observations for February 21, 2021

Temp ( °F °C ) Dew Point ( °F °C ) Humidity (%) Winds ( mph kmh ) Pressure ( in mb ) Visibility ( mi km ) Precip ( " mm )
12:52 am 00:52 Clear 19 -7.2 13 -10.6 77 77 S 7 11 30.45 1031 8 13 0.00 0.00
1:52 am 01:52 Clear 19 -7.2 13 -10.6 77 77 SSE 7 11 30.45 1031 8 13 0.00 0.00
2:52 am 02:52 Clear 17 -8.3 11 -11.7 77 77 SE 9 15 30.45 1031 8 13 0.00 0.00
3:52 am 03:52 Clear 19 -7.2 13 -10.6 77 77 SE 8 13 30.44 1031 8 13 0.00 0.00
4:52 am 04:52 Clear 19 -7.2 14 -10 81 81 SE 7 11 30.43 1030 7 11 0.00 0.00
5:52 am 05:52 Clear 19 -7.2 14 -10 81 81 ESE 9 15 30.42 1030 7 11 0.00 0.00
6:52 am 06:52 Partly Cloudy 18 -7.8 14 -10 84 84 ESE 7 11 30.43 1031 7 11 0.00 0.00
7:52 am 07:52 Mostly Cloudy with Haze 19 -7.2 14 -10 81 81 ESE 7 11 30.42 1030 6 10 0.00 0.00
8:52 am 08:52 Mostly Cloudy 22 -5.6 15 -9.4 75 75 SE 8 13 30.42 1030 7 11 0.00 0.00
9:52 am 09:52 Mostly Cloudy 26 -3.3 17 -8.3 69 69 SE 9 15 30.43 1031 8 13 0.00 0.00
10:52 am 10:52 Cloudy 29 -1.7 18 -7.8 63 63 ESE 10 17 30.41 1030 9 14 0.00 0.00
11:52 am 11:52 Mostly Cloudy 32 0 19 -7.2 59 59 ESE 12 19 30.39 1029 10 16 0.00 0.00
12:52 pm 12:52 Mostly Cloudy 34 1.1 20 -6.7 56 56 SSE 10 17 30.35 1028 10 16 0.00 0.00
1:52 pm 13:52 Mostly Cloudy 37 2.8 21 -6.1 52 52 SSE 13 20 30.30 1026 10 16 0.00 0.00
2:52 pm 14:52 Mostly Cloudy 39 3.9 21 -6.1 48 48 SSE 12 19 30.26 1025 10 16 0.00 0.00
3:52 pm 15:52 Mostly Cloudy 41 5 21 -6.1 45 45 SE 14 22 30.21 1023 10 16 0.00 0.00
4:52 pm 16:52 Cloudy 39 3.9 24 -4.4 55 55 SSE 15 24 30.19 1022 10 16 0.00 0.00
5:52 pm 17:52 Cloudy 38 3.3 25 -3.9 60 60 SSE 15 24 30.16 1022 10 16 0.00 0.00
6:52 pm 18:52 Cloudy 38 3.3 27 -2.8 65 65 SSE 20 31 30.14 1021 10 16 0.00 0.00
7:52 pm 19:52 Cloudy 38 3.3 28 -2.2 68 68 SSE 14 22 30.12 1020 10 16 0.00 0.00
8:52 pm 20:52 Cloudy 38 3.3 29 -1.7 70 70 SSE 16 26 30.09 1019 10 16 0.00 0.00
9:52 pm 21:52 Cloudy 38 3.3 30 -1.1 73 73 SSE 22 35 30.03 1017 10 16 0.00 0.00
10:52 pm 22:52 Cloudy 39 3.9 29 -1.7 67 67 SSE 14 22 29.99 1016 10 16 0.00 0.00
11:52 pm 23:52 Cloudy 42 5.6 27 -2.8 55 55 S 13 20 29.94 1014 10 16 0.00 0.00

Powered by AerisWeather